Skip Page Navigation
NASA JPL Caltech
NASA Logo - Jet Propulsion Laboratory + View the NASA Portal
+ Center for Near-Earth Object Studies
JPL Home Earth Solar System Stars & Galaxies Technology
JPL Solar System Dynamics
BODIES ORBITS EPHEMERIDES TOOLS PHYSICAL DATA DISCOVERY FAQ SITE MAP
JPL Small-Body Database Browser
Search: [ help ]  
441019 (2007 EE135)
Classification: Main-belt Asteroid          SPK-ID: 2441019
Ephemeris | Orbit Diagram | Orbital Elements | Mission Design | Physical Parameters | Discovery Circumstances | Close-Approach Data ]

[ hide orbit diagram ]

For accurate long-term ephemerides, please instead use our Horizons system.This orbit viewer was implemented using two-body methods, and hence should not be used for determining accurate long-term trajectories (over several years or decades) or planetary encounter circumstances.


[ revert to old Java-based viewer ]

Orbital Elements at Epoch 2459000.5 (2020-May-31.0) TDB
Reference: JPL 12 (heliocentric ecliptic J2000)
 Element Value Uncertainty (1-sigma)   Units 
e .07999758711435052 6.1479e-08  
a 3.180221727934858 6.5824e-08 au
q 2.925811663211439 2.0239e-07 au
i 10.79992060362073 6.8976e-06 deg
node 154.5989171065596 3.7262e-05 deg
peri 264.9931337261512 5.9143e-05 deg
M 200.2666320850624 4.9062e-05 deg
tp 2459919.631553286816
(2022-Dec-06.13155329)
0.00029669 TDB
period 2071.498043911903
5.67
6.4314e-05
1.761e-07
d
yr
n .1737872748941443 5.3956e-09 deg/d
Q 3.434631792658277 7.109e-08 au
  Orbit Determination Parameters
   # obs. used (total)      113  
   data-arc span      4924 days (13.48 yr)  
   first obs. used      2007-01-29  
   last obs. used      2020-07-23  
   planetary ephem.      DE431  
   SB-pert. ephem.      SB431-N16  
   condition code      0  
   norm. resid. RMS      .61917  
   source      ORB  
   producer      Otto Matic  
   solution date      2020-Nov-12 09:00:15  

Additional Information
 Earth MOID = 1.96375 au 
 Jupiter MOID = 1.85851 au 
 T_jup = 3.167 
[ show covariance matrix ]

Ephemeris | Orbit Diagram | Orbital Elements | Mission Design | Physical Parameters | Discovery Circumstances | Close-Approach Data ]

Physical Parameter Table
Parameter Symbol Value Units Sigma Reference Notes
absolute magnitude H 16.2   n/a MPO434636  

441019 (2007 EE135)          Discovered 2007-Jan-29 by Spacewatch at Kitt Peak
Reference: Last Updated: 2015-09-02

[ show close-approach data ]
Alternate Designations
 2007 EE135 = 2007 EX212 
Ephemeris | Orbit Diagram | Orbital Elements | Mission Design | Physical Parameters | Discovery Circumstances | Close-Approach Data ]
ABOUT SSD CREDITS/AWARDS PRIVACY/COPYRIGHT GLOSSARY LINKS
FirstGov 2020-Dec-02 11:01 UT
(server date/time)  
NASA Home Page
Site Manager:   Ryan S. Park
Webmaster  Alan B. Chamberlin